Regional Weather Roundup
Issued by NWS Green Bay, WI

Home | Current Version | Previous Version | Graphics & Text | Print | Product List | Glossary Off
Versions: 1 2 3 4 5 6 7 8 9 10 11 12 13 14 15 16 17 18 19 20 21 22 23 24 25 26 27 28 29 30 31 32 33 34 35 36 37 38 39 40 41 42 43 44 45 46 47 48 49 50

000
ASUS43 KGRB 020311
RWRGRB

NORTH-CENTRAL AND NORTHEAST WISCONSIN REGIONAL WEATHER ROUNDUP
NATIONAL WEATHER SERVICE GREEN BAY WI
1000 PM CDT SUN MAY 01 2016

WIZ005-009-010>012-018-019-020400-
NORTH CENTRAL WISCONSIN

CITY           SKY/WX    TMP DP  RH WIND       PRES   REMARKS
IRONWOOD         N/A     36  34  93 CALM      30.13S
MANITOWISH WTR CLEAR     44  33  65 N3        30.13S
ARBOR VITAE    CLEAR     49  35  58 NE8       30.13S
EAGLE RIVER    CLEAR     45  30  55 NE5       30.13R
LAND O LAKES   CLEAR     46  31  57 N6        30.14S
RHINELANDER    PTCLDY    51  30  44 CALM      30.12R
PHILLIPS       CLEAR     47  35  62 N7        30.12R
ANTIGO         PTCLDY    45  34  66 CALM      30.11S
TOMAHAWK       CLOUDY    52  32  46 NE5       30.11S
MERRILL        CLOUDY    51  33  49 SE3       30.12R
$$

WIZ013-073-020400-
NORTHEAST WISCONSIN

CITY           SKY/WX    TMP DP  RH WIND       PRES   REMARKS
IRON MOUNTAIN  CLEAR     45  28  51 NE3       30.12S
MARINETTE      CLEAR     45  34  65 CALM      30.11S
OCONTO         CLEAR     41  40  97 CALM      30.10F
$$

WIZ017-030-035>037-045-020400-
CENTRAL WISCONSIN

CITY           SKY/WX    TMP DP  RH WIND       PRES   REMARKS
MEDFORD        CLOUDY    50  37  59 CALM      30.10R
WAUSAU         MOCLDY    50  33  52 E7        30.09R
MOSINEE        MOCLDY    46  32  57 E7        30.11R
MARSHFIELD     CLEAR     49  34  56 CALM      30.09S
WISC RAPIDS    CLEAR     45  33  63 CALM      30.11R
STEVENS POINT  CLEAR     43  32  64 NE3       30.10F
WAUPACA        CLEAR     49  38  67 N5        30.10S
SHAWANO        CLEAR     49  39  69 CALM      30.11S
CLINTONVILLE   CLEAR     46  36  66 N3        30.10S
WAUTOMA        PTCLDY    48  38  68 N5        30.09S
$$

WIZ038-039-048-051-020400-
FOX VALLEY

CITY           SKY/WX    TMP DP  RH WIND       PRES   REMARKS
NWS GREEN BAY  PTCLDY    48  39  71 NE8       30.09F
APPLETON       PTCLDY    46  37  71 NE7       30.07S
OSHKOSH        CLOUDY    49  40  71 NE10      30.08R
FOND DU LAC    CLOUDY    49  40  71 NE9       30.09R
$$

WIZ022-050-052-020400-
EAST CENTRAL WISCONSIN

CITY           SKY/WX    TMP DP  RH WIND       PRES   REMARKS
EPHRAIM        FAIR      44  33  66 N9        30.10S
STURGEON BAY   CLEAR     43  34  70 N3        30.12F
MANITOWOC      CLOUDY    48  36  63 NE6       30.08S
SHEBOYGAN      CLOUDY    47  37  68 NE13      30.07R
$$

LMZ563-521-522-541>543-020400-
LAKESHORE

STATION/POSITION TIME  TEMP    WIND        PRES    VSBY  WAVE
                       AIR SEA DIR/SP/G                  HT/PER
                 (UTC) (F)     (DEG/KT/KT) (MB)    (MI)  (FT/S)
SHEBOYGAN LKSHOR 0300   43      10/  9/ 11 1018.9R
KEWAUNEE LKSHORE 0200   46      20/ 10/ 13 1018.2S
NORTHPORT PIER   0200   45     310/  5/  6 1019.6
N MID LAKE BUOY  0250   42 38  330/ 10/ 12 1019.4F         0
CHAMBERS ISLAND  0200   42        CALM     1019.6
MENOMINEE LKSHOR 0200   45      20/  6/  8 1018.5R
$$




USA.gov is the U.S. government's official web portal to all federal, state and local government web resources and services.